Location: Unspecified
(0.0000°N, 0.0000°E)
Time: 07:39:59
(UTC+00:00)

Transit 4A - Pass Details

Date: 04 October 2023
Orbit: 864 x 979 km, 66.8° (Epoch: 05 December)

Event Time Altitude Azimuth Distance (km) Brightness Sun altitude
Rises 07:16:20 0° 161° (SSE) 3,540 11.2 21.8°
Reaches altitude 10° 07:20:52 10° 129° (SE) 2,626 11.3 22.9°
Maximum altitude 07:22:53 12° 110° (ESE) 2,518 11.9 23.4°
Drops below altitude 10° 07:24:55 10° 90° (E) 2,650 12.3 23.9°
Sets 07:29:30 0° 60° (ENE) 3,619 11.8 25.1°
